WLF312 KMIA-MKJS

Flight info

Callsign WLF312
Flight time 1h 17m
Altitude 39000
Route GWAVA2 URSUS UP406 BILSI/N0442F380 DCT NIBEO UL341 ENARI OMAXI7
Aircraft B738/M-SDE2E3FGHIRWXY/LB1

Departure

Time 2026-04-30 18:40
Airport Miami International Airport (KMIA)

Arrival

Time 2026-04-30 19:57
Airport Sangster International Airport (MKJS)
Time Latitude Longitude Altitude Speed Heading
2026-04-30 18:13 25.79836 -80.28165 13 ft 0 kts 181°
2026-04-30 18:30 25.79837 -80.28165 13 ft 0 kts 181°
2026-04-30 18:30 25.79881 -80.28165 14 ft 4 kts 209°
2026-04-30 18:31 25.79895 -80.28146 13 ft 4 kts 263°
2026-04-30 18:31 25.79897 -80.28096 13 ft 0 kts 268°
2026-04-30 18:35 25.79897 -80.28097 13 ft 1 kts 268°
2026-04-30 18:35 25.79902 -80.28122 13 ft 7 kts 298°
2026-04-30 18:35 25.79974 -80.28145 13 ft 15 kts 354°
2026-04-30 18:36 25.80033 -80.28374 14 ft 17 kts 267°
2026-04-30 18:36 25.80028 -80.28512 15 ft 18 kts 270°
2026-04-30 18:36 25.80016 -80.28816 21 ft 20 kts 266°
2026-04-30 18:37 25.80009 -80.28967 19 ft 19 kts 267°
2026-04-30 18:37 25.80001 -80.29113 20 ft 19 kts 268°
2026-04-30 18:37 25.79996 -80.29265 20 ft 22 kts 267°
2026-04-30 18:37 25.79989 -80.29457 13 ft 27 kts 269°
2026-04-30 18:38 25.79981 -80.29664 13 ft 26 kts 267°
2026-04-30 18:38 25.79972 -80.29858 11 ft 24 kts 267°
2026-04-30 18:38 25.79966 -80.29980 11 ft 8 kts 267°
2026-04-30 18:38 25.79969 -80.30062 12 ft 12 kts 290°
2026-04-30 18:39 25.80029 -80.30124 14 ft 12 kts 351°
2026-04-30 18:39 25.80074 -80.30059 12 ft 12 kts 86°
2026-04-30 18:39 25.80081 -80.29882 11 ft 48 kts 88°
2026-04-30 18:39 25.80108 -80.29245 21 ft 114 kts 87°
2026-04-30 18:40 25.80155 -80.28162 29 ft 164 kts 89°
2026-04-30 18:40 25.80237 -80.26857 583 ft 170 kts 88°
2026-04-30 18:40 25.80132 -80.25554 1242 ft 169 kts 113°
2026-04-30 18:40 25.79452 -80.24489 1775 ft 177 kts 140°
2026-04-30 18:41 25.78432 -80.23584 2055 ft 202 kts 143°
2026-04-30 18:41 25.77281 -80.22558 2246 ft 225 kts 142°
2026-04-30 18:41 25.76026 -80.21396 2404 ft 246 kts 142°
2026-04-30 18:41 25.75141 -80.20553 2654 ft 258 kts 141°
2026-04-30 18:42 25.73624 -80.19452 3312 ft 264 kts 162°
2026-04-30 18:42 25.69973 -80.19009 4748 ft 269 kts 180°
2026-04-30 18:42 25.67483 -80.18977 5692 ft 271 kts 185°
2026-04-30 18:45 25.49093 -80.11310 11431 ft 354 kts 150°
2026-04-30 18:45 25.46970 -80.09905 12142 ft 357 kts 150°
2026-04-30 18:45 25.44826 -80.08489 12834 ft 362 kts 150°
2026-04-30 18:46 25.42650 -80.07055 13527 ft 367 kts 150°
2026-04-30 18:46 25.40441 -80.05600 14184 ft 371 kts 150°
2026-04-30 18:46 25.38211 -80.04133 14898 ft 374 kts 150°
2026-04-30 18:46 25.35970 -80.02658 15645 ft 376 kts 150°
2026-04-30 18:47 25.33717 -80.01177 16378 ft 378 kts 150°
2026-04-30 18:47 25.31444 -79.99684 17090 ft 381 kts 150°
2026-04-30 18:47 25.29154 -79.98179 17767 ft 385 kts 150°
2026-04-30 18:47 25.26849 -79.96667 18413 ft 388 kts 150°
2026-04-30 18:48 25.24532 -79.95097 18973 ft 393 kts 149°
2026-04-30 18:48 25.22224 -79.93464 19535 ft 397 kts 148°
2026-04-30 18:48 25.19897 -79.91796 20085 ft 401 kts 148°
2026-04-30 18:48 25.17598 -79.90147 20620 ft 405 kts 148°
2026-04-30 18:49 25.15224 -79.88448 21158 ft 409 kts 148°
2026-04-30 18:49 25.12823 -79.86738 21687 ft 413 kts 148°
2026-04-30 18:49 25.10394 -79.85014 22214 ft 417 kts 149°
2026-04-30 18:49 25.07942 -79.83277 22726 ft 421 kts 149°
2026-04-30 18:50 25.05466 -79.81525 23231 ft 425 kts 149°
2026-04-30 18:50 25.02967 -79.79758 23686 ft 429 kts 149°
2026-04-30 18:50 25.00469 -79.77991 24356 ft 422 kts 149°
2026-04-30 18:50 24.98000 -79.76247 24883 ft 423 kts 148°
2026-04-30 18:51 24.95500 -79.74481 25201 ft 430 kts 148°
2026-04-30 18:51 24.92974 -79.72698 25568 ft 433 kts 148°
2026-04-30 18:51 24.90424 -79.70899 25988 ft 436 kts 148°
2026-04-30 18:51 24.87867 -79.69097 26397 ft 438 kts 148°
2026-04-30 18:52 24.85292 -79.67282 26776 ft 441 kts 148°
2026-04-30 18:52 24.82698 -79.65455 27154 ft 444 kts 148°
2026-04-30 18:52 24.80084 -79.63614 27532 ft 447 kts 148°
2026-04-30 18:52 24.77459 -79.61766 27904 ft 450 kts 148°
2026-04-30 18:53 24.74817 -79.59906 28264 ft 452 kts 148°
2026-04-30 18:53 24.72157 -79.58035 28604 ft 455 kts 148°
2026-04-30 18:53 24.69493 -79.56161 28950 ft 458 kts 148°
2026-04-30 18:53 24.66801 -79.54269 29306 ft 461 kts 148°
2026-04-30 18:54 24.64092 -79.52366 29654 ft 463 kts 148°
2026-04-30 18:54 24.61386 -79.50466 30072 ft 463 kts 148°
2026-04-30 18:54 24.58671 -79.48560 30406 ft 464 kts 148°
2026-04-30 18:54 24.55938 -79.46643 30654 ft 468 kts 148°
2026-04-30 18:55 24.53187 -79.44714 30885 ft 471 kts 148°
2026-04-30 18:55 24.47626 -79.40820 31368 ft 478 kts 148°
2026-04-30 18:55 24.44808 -79.38848 31553 ft 482 kts 148°
2026-04-30 18:56 24.39138 -79.34881 32089 ft 485 kts 148°
2026-04-30 18:56 24.36284 -79.32887 32380 ft 486 kts 147°
2026-04-30 18:56 24.33435 -79.30897 32728 ft 486 kts 147°
2026-04-30 18:57 24.27748 -79.26903 33396 ft 485 kts 147°
2026-04-30 18:57 24.24921 -79.24876 33684 ft 486 kts 146°
2026-04-30 18:57 24.22097 -79.22839 34004 ft 486 kts 146°
2026-04-30 18:58 24.16455 -79.18775 34610 ft 484 kts 146°
2026-04-30 18:58 24.13642 -79.16757 34917 ft 483 kts 146°
2026-04-30 18:58 24.10825 -79.14740 35199 ft 483 kts 146°
2026-04-30 18:59 24.05302 -79.10790 35751 ft 482 kts 146°
2026-04-30 19:00 23.96333 -79.06096 36540 ft 481 kts 171°
2026-04-30 19:00 23.93046 -79.05508 36965 ft 477 kts 171°
2026-04-30 19:00 23.86502 -79.04305 37356 ft 479 kts 171°
2026-04-30 19:01 23.79938 -79.03035 37853 ft 478 kts 170°
2026-04-30 19:01 23.76670 -79.02388 38149 ft 476 kts 169°
2026-04-30 19:02 23.70173 -79.01098 38549 ft 477 kts 169°
2026-04-30 19:02 23.63664 -78.99810 38975 ft 474 kts 170°
2026-04-30 19:03 23.57188 -78.98532 38967 ft 478 kts 170°
2026-04-30 19:04 23.44242 -78.95981 38965 ft 469 kts 170°
2026-04-30 19:05 23.31433 -78.93463 38958 ft 467 kts 170°
2026-04-30 19:06 23.18638 -78.90980 38968 ft 468 kts 173°
2026-04-30 19:06 23.08892 -78.90086 38968 ft 470 kts 177°
2026-04-30 19:07 22.99080 -78.89367 38959 ft 473 kts 176°
2026-04-30 19:08 22.85912 -78.88270 38959 ft 476 kts 176°
2026-04-30 19:09 22.75976 -78.87427 38955 ft 478 kts 176°
2026-04-30 19:09 22.69348 -78.86867 38955 ft 477 kts 176°
2026-04-30 19:10 22.56354 -78.85772 38940 ft 464 kts 176°
2026-04-30 19:11 22.46703 -78.84961 38938 ft 463 kts 176°
2026-04-30 19:12 22.40272 -78.84422 38936 ft 464 kts 176°
2026-04-30 19:12 22.33839 -78.83882 38938 ft 464 kts 176°
2026-04-30 19:13 22.20955 -78.82802 38931 ft 464 kts 176°
2026-04-30 19:14 22.14513 -78.82263 38934 ft 465 kts 176°
2026-04-30 19:14 22.08064 -78.81724 38928 ft 465 kts 176°
2026-04-30 19:15 22.01611 -78.81184 38919 ft 464 kts 178°
2026-04-30 19:15 21.91967 -78.80380 38918 ft 462 kts 178°
2026-04-30 19:16 21.85566 -78.79846 38921 ft 461 kts 178°
2026-04-30 19:17 21.76002 -78.79050 38925 ft 458 kts 178°
2026-04-30 19:17 21.66501 -78.78260 38916 ft 456 kts 179°
2026-04-30 19:18 21.57076 -78.77478 38933 ft 454 kts 179°
2026-04-30 19:19 21.50795 -78.76957 38924 ft 453 kts 179°
2026-04-30 19:19 21.41379 -78.76178 38930 ft 452 kts 179°
2026-04-30 19:20 21.35115 -78.75659 38936 ft 452 kts 179°
2026-04-30 19:21 21.25808 -78.74890 38938 ft 452 kts 179°
2026-04-30 19:22 21.13812 -78.73900 38933 ft 453 kts 179°
2026-04-30 19:23 20.95184 -78.72366 38935 ft 455 kts 179°
2026-04-30 19:24 20.85705 -78.71587 38939 ft 456 kts 179°
2026-04-30 19:25 20.69826 -78.70285 38028 ft 461 kts 179°
2026-04-30 19:26 20.63456 -78.69761 37030 ft 455 kts 179°
2026-04-30 19:26 20.57200 -78.69246 36214 ft 447 kts 179°
2026-04-30 19:26 20.54114 -78.68994 35835 ft 444 kts 179°
2026-04-30 19:27 20.48041 -78.68500 35022 ft 438 kts 178°
2026-04-30 19:27 20.42000 -78.68005 34197 ft 433 kts 178°
2026-04-30 19:28 20.39000 -78.67760 33774 ft 431 kts 178°
2026-04-30 19:28 20.33048 -78.67271 32920 ft 426 kts 178°
2026-04-30 19:29 20.28125 -78.66871 32254 ft 421 kts 177°
2026-04-30 19:29 20.25228 -78.66636 31857 ft 418 kts 177°
2026-04-30 19:30 20.16591 -78.65934 30718 ft 411 kts 176°
2026-04-30 19:30 20.10911 -78.65472 29942 ft 408 kts 175°
2026-04-30 19:31 20.05275 -78.65012 29086 ft 403 kts 176°
2026-04-30 19:31 20.02491 -78.64781 28679 ft 400 kts 175°
2026-04-30 19:31 19.97192 -78.63250 28039 ft 392 kts 156°
2026-04-30 19:32 19.94726 -78.62054 27756 ft 388 kts 155°
2026-04-30 19:32 19.92326 -78.60863 27389 ft 385 kts 155°
2026-04-30 19:32 19.89907 -78.59659 27020 ft 383 kts 155°
2026-04-30 19:32 19.87501 -78.58468 26658 ft 381 kts 155°
2026-04-30 19:33 19.85103 -78.57290 26287 ft 379 kts 156°
2026-04-30 19:33 19.82707 -78.56119 25916 ft 378 kts 156°
2026-04-30 19:33 19.80320 -78.54956 25539 ft 377 kts 156°
2026-04-30 19:33 19.77939 -78.53800 25153 ft 376 kts 156°
2026-04-30 19:34 19.75558 -78.52645 24766 ft 376 kts 156°
2026-04-30 19:34 19.73179 -78.51493 24400 ft 375 kts 156°
2026-04-30 19:34 19.68437 -78.49197 23635 ft 375 kts 156°
2026-04-30 19:35 19.66063 -78.48048 23217 ft 374 kts 156°
2026-04-30 19:35 19.63701 -78.46905 22818 ft 373 kts 156°
2026-04-30 19:35 19.61347 -78.45767 22430 ft 371 kts 156°
2026-04-30 19:35 19.59010 -78.44636 22058 ft 369 kts 156°
2026-04-30 19:36 19.56684 -78.43512 21683 ft 367 kts 156°
2026-04-30 19:36 19.54369 -78.42394 21314 ft 365 kts 156°
2026-04-30 19:36 19.49778 -78.40176 20587 ft 360 kts 156°
2026-04-30 19:37 19.47501 -78.39076 20231 ft 359 kts 156°
2026-04-30 19:37 19.45234 -78.37983 19875 ft 357 kts 156°
2026-04-30 19:37 19.42971 -78.36892 19503 ft 356 kts 156°
2026-04-30 19:37 19.40718 -78.35805 19186 ft 354 kts 156°
2026-04-30 19:38 19.38499 -78.34735 18951 ft 348 kts 156°
2026-04-30 19:38 19.36306 -78.33679 18663 ft 345 kts 156°
2026-04-30 19:38 19.34126 -78.32628 18319 ft 344 kts 156°
2026-04-30 19:38 19.31946 -78.31578 17953 ft 343 kts 156°
2026-04-30 19:39 19.29781 -78.30536 17618 ft 340 kts 156°
2026-04-30 19:39 19.27631 -78.29500 17253 ft 338 kts 156°
2026-04-30 19:39 19.25496 -78.28472 16941 ft 336 kts 156°
2026-04-30 19:39 19.23371 -78.27449 16555 ft 336 kts 156°
2026-04-30 19:40 19.21248 -78.26428 16222 ft 334 kts 156°
2026-04-30 19:40 19.19145 -78.25416 15871 ft 333 kts 156°
2026-04-30 19:40 19.17041 -78.24405 15537 ft 331 kts 156°
2026-04-30 19:40 19.14951 -78.23400 15255 ft 327 kts 156°
2026-04-30 19:41 19.12879 -78.22404 14889 ft 327 kts 156°
2026-04-30 19:41 19.10813 -78.21412 14580 ft 325 kts 156°
2026-04-30 19:41 19.08764 -78.20430 14319 ft 322 kts 156°
2026-04-30 19:41 19.06726 -78.19453 13938 ft 323 kts 156°
2026-04-30 19:42 19.04677 -78.18472 13646 ft 321 kts 156°
2026-04-30 19:42 19.02651 -78.17502 13306 ft 320 kts 156°
2026-04-30 19:42 19.00628 -78.16534 12963 ft 318 kts 156°
2026-04-30 19:42 18.98627 -78.15576 12739 ft 313 kts 156°
2026-04-30 19:43 18.96659 -78.14635 12421 ft 311 kts 156°
2026-04-30 19:43 18.94692 -78.13694 12107 ft 309 kts 156°
2026-04-30 19:43 18.92771 -78.12774 11843 ft 305 kts 156°
2026-04-30 19:44 18.88918 -78.10931 11211 ft 302 kts 156°
2026-04-30 19:44 18.87012 -78.10020 10940 ft 299 kts 157°
2026-04-30 19:44 18.85132 -78.09121 10731 ft 294 kts 157°
2026-04-30 19:44 18.83263 -78.08228 10577 ft 287 kts 157°
2026-04-30 19:45 18.81466 -78.07370 10334 ft 285 kts 157°
2026-04-30 19:45 18.79689 -78.06522 10066 ft 283 kts 157°
2026-04-30 19:45 18.77898 -78.05666 9813 ft 281 kts 157°
2026-04-30 19:45 18.76132 -78.04823 9507 ft 280 kts 156°
2026-04-30 19:46 18.74359 -78.03978 9182 ft 279 kts 156°
2026-04-30 19:46 18.72592 -78.03149 8914 ft 277 kts 160°
2026-04-30 19:46 18.70714 -78.02953 8650 ft 273 kts 194°
2026-04-30 19:46 18.69080 -78.03822 8632 ft 257 kts 219°
2026-04-30 19:47 18.67940 -78.05199 8525 ft 243 kts 234°
2026-04-30 19:47 18.67307 -78.06153 8414 ft 237 kts 233°
2026-04-30 19:47 18.65954 -78.07956 7975 ft 234 kts 227°
2026-04-30 19:47 18.64823 -78.09188 7621 ft 234 kts 222°
2026-04-30 19:48 18.63594 -78.10304 7266 ft 233 kts 217°
2026-04-30 19:48 18.62286 -78.11306 6913 ft 232 kts 212°
2026-04-30 19:48 18.60919 -78.12200 6512 ft 231 kts 208°
2026-04-30 19:48 18.59494 -78.12988 6128 ft 231 kts 204°
2026-04-30 19:49 18.58025 -78.13665 5745 ft 229 kts 199°
2026-04-30 19:49 18.55040 -78.14672 4896 ft 224 kts 186°
2026-04-30 19:49 18.53533 -78.14917 4763 ft 211 kts 186°
2026-04-30 19:50 18.52119 -78.15097 4590 ft 201 kts 182°
2026-04-30 19:50 18.50748 -78.15182 4336 ft 195 kts 178°
2026-04-30 19:50 18.49390 -78.15177 4014 ft 194 kts 175°
2026-04-30 19:50 18.48057 -78.15085 3744 ft 190 kts 170°
2026-04-30 19:51 18.46773 -78.14916 3552 ft 184 kts 166°
2026-04-30 19:51 18.45510 -78.14686 3445 ft 184 kts 165°
2026-04-30 19:51 18.44247 -78.14376 3329 ft 188 kts 161°
2026-04-30 19:51 18.43042 -78.13860 3268 ft 189 kts 139°
2026-04-30 19:52 18.42233 -78.12783 3198 ft 188 kts 112°
2026-04-30 19:52 18.41979 -78.11478 3073 ft 181 kts 84°
2026-04-30 19:52 18.42354 -78.10245 3003 ft 176 kts 72°
2026-04-30 19:52 18.42781 -78.09020 2859 ft 183 kts 70°
2026-04-30 19:53 18.43275 -78.07770 2715 ft 184 kts 68°
2026-04-30 19:53 18.43796 -78.06539 2520 ft 183 kts 68°
2026-04-30 19:53 18.44299 -78.05364 2385 ft 170 kts 66°
2026-04-30 19:53 18.44784 -78.04241 2215 ft 168 kts 65°
2026-04-30 19:54 18.45275 -78.03131 2101 ft 164 kts 65°
2026-04-30 19:54 18.45736 -78.02049 1923 ft 164 kts 66°
2026-04-30 19:54 18.46201 -78.00965 1746 ft 160 kts 65°
2026-04-30 19:54 18.46639 -77.99952 1529 ft 145 kts 64°
2026-04-30 19:55 18.47038 -77.99029 1374 ft 139 kts 66°
2026-04-30 19:55 18.47431 -77.98118 1205 ft 137 kts 65°
2026-04-30 19:55 18.47839 -77.97180 1043 ft 143 kts 65°
2026-04-30 19:55 18.48261 -77.96215 886 ft 147 kts 65°
2026-04-30 19:56 18.48659 -77.95226 700 ft 146 kts 65°
2026-04-30 19:56 18.49082 -77.94260 493 ft 144 kts 63°
2026-04-30 19:56 18.49517 -77.93307 245 ft 145 kts 66°
2026-04-30 19:56 18.49933 -77.92348 68 ft 145 kts 66°
2026-04-30 19:57 18.50323 -77.91441 11 ft 117 kts 65°
2026-04-30 19:57 18.50568 -77.90871 13 ft 57 kts 65°
2026-04-30 19:57 18.50725 -77.90512 10 ft 54 kts 65°
2026-04-30 19:57 18.50838 -77.90240 9 ft 22 kts 81°
2026-04-30 19:58 18.50729 -77.90195 10 ft 21 kts 199°
2026-04-30 19:58 18.50630 -77.90293 9 ft 20 kts 245°
2026-04-30 19:58 18.50574 -77.90426 10 ft 20 kts 246°
2026-04-30 19:58 18.50520 -77.90554 10 ft 19 kts 245°
2026-04-30 19:59 18.50464 -77.90677 10 ft 18 kts 245°
2026-04-30 19:59 18.50415 -77.90796 10 ft 18 kts 245°
2026-04-30 19:59 18.50280 -77.91106 10 ft 30 kts 246°
2026-04-30 20:00 18.50189 -77.91318 9 ft 33 kts 245°
2026-04-30 20:00 18.50100 -77.91524 10 ft 28 kts 245°
2026-04-30 20:00 18.50047 -77.91651 10 ft 8 kts 249°
2026-04-30 20:00 18.50015 -77.91684 10 ft 6 kts 171°
2026-04-30 20:01 18.49962 -77.91660 9 ft 0 kts 155°
2026-04-30 20:05 18.49963 -77.91660 9 ft 0 kts 155°